User: anonymous   Login
Location: �clusier
(49.9361°N, 2.7869°E)
Time: 09:33:30
(UTC+00:00)
Language:

Okean 1-7 Rocket - Orbit

View from above orbital plane
View from above orbital plane
View from above satellite
View from above satellite

Ground track
Ground track

The orbit data is extracted from the following two-line orbital elements,

1 23318U 94066B   21263.82705945  .00000072  00000-0  65277-5 0  9997
2 23318  82.5437 164.9046 0023627 177.5746 182.5586 14.78921149452445
Epoch (UTC): 20 September 2021 19:50:57
Eccentricity: 0.0023627
inclination: 82.5437°
perigee height: 616 km
apogee height: 649 km
right ascension of ascending node: 164.9046°
argument of perigee: 177.5746°
revolutions per day: 14.78921149
mean anomaly at epoch: 182.5586°
orbit number at epoch: 45244

The dashed part of the orbit path shows where the satellite is in the earth's shadow,  

DLR